Theta_e
328 328 328 328 329 329 328 328 327 326 326 326 325 324 323 323 322 322 322 321 321 320 320 320 319 319 319 319 320 321 321 322 323 324 325 325 326 327 327 327 327 327 326 326 327 327 327 328 328 327 327 327 328 327 327 327 328 330 330 330 328 328 328
325 326 326 327 328 327 327 326 325 324 324 323 322 321 320 320 319 319 319 318 318 317 316 315 314 313 312 313 315 318 319 320 321 322 324 325 325 325 325 326 326 326 326 326 327 326 326 327 327 327 327 327 327 328 328 327 328 328 329 330 330 329 329
323 324 325 325 326 325 324 323 323 322 321 319 319 317 317 317 317 315 314 314 313 312 312 311 311 311 311 311 313 315 317 318 319 320 321 322 323 323 323 324 325 326 326 326 326 326 326 326 326 327 327 327 327 327 327 327 328 328 327 328 329 330 329
321 322 322 323 323 322 321 320 320 319 317 316 315 315 315 314 313 311 311 311 311 311 311 311 311 311 311 311 312 312 314 315 316 317 318 318 319 319 320 322 323 324 325 325 325 325 326 326 326 327 327 327 326 326 327 327 328 328 328 328 328 330 330
319 319 319 319 319 319 319 318 317 317 314 313 312 313 313 312 311 311 311 311 310 310 310 309 310 310 309 310 311 311 312 312 313 314 315 316 317 317 318 319 320 321 322 323 324 324 324 325 325 325 326 326 327 327 327 328 328 328 328 329 329 330 331
317 317 316 316 316 316 316 316 316 315 313 311 311 311 311 311 311 311 310 309 308 307 307 307 307 307 307 308 308 309 310 311 312 313 313 314 315 316 317 317 318 318 319 320 321 322 322 322 323 324 324 324 326 326 326 327 327 328 328 329 329 330 331
316 315 315 314 314 314 314 314 314 313 311 310 310 311 311 311 310 308 307 305 304 304 303 303 303 303 303 304 305 306 307 308 310 311 312 313 313 315 315 316 317 317 317 318 318 319 320 320 321 322 322 323 324 325 326 326 327 328 328 329 329 329 330
314 313 313 313 312 312 312 312 312 312 311 310 310 310 310 308 306 304 302 301 300 300 299 299 299 299 299 299 300 301 302 304 305 307 308 309 311 312 313 314 315 315 315 316 316 317 317 318 319 320 321 322 322 324 325 326 327 327 327 328 328 329 329
312 311 312 311 311 312 312 312 311 311 310 310 309 308 305 303 301 300 299 298 297 297 297 297 297 297 297 297 297 297 298 299 301 303 303 305 307 308 308 310 311 312 313 314 314 315 316 316 317 318 319 319 319 320 322 323 325 326 326 327 328 328 329
310 311 311 311 311 311 311 310 310 309 308 307 305 302 300 298 297 297 297 297 297 296 297 297 297 297 296 296 296 296 296 296 298 299 300 302 305 305 307 308 308 310 310 310 311 313 314 315 316 316 317 317 317 317 318 320 321 323 325 326 326 327 328
310 310 311 310 310 310 309 308 307 306 304 302 299 298 297 296 296 296 296 296 296 296 296 296 296 296 296 296 296 295 296 295 296 296 297 298 300 302 304 305 306 308 307 306 307 309 311 311 312 314 315 316 315 315 315 316 317 320 322 323 324 326 326
309 308 309 308 307 307 306 304 302 301 299 297 296 296 296 296 296 296 296 296 296 296 296 296 296 295 295 295 295 295 295 295 295 296 295 295 296 297 299 301 304 305 304 302 304 306 308 308 308 310 311 313 313 313 313 313 314 318 320 320 322 324 325
307 306 306 305 303 302 300 299 297 297 296 296 296 295 295 295 295 295 295 295 295 295 295 295 295 295 295 295 295 295 295 294 295 295 295 295 295 296 297 300 303 303 302 301 302 304 306 306 306 306 307 309 310 310 311 311 311 315 318 318 319 322 323
304 303 302 300 299 297 297 296 296 295 295 295 295 295 295 295 295 295 295 295 295 295 295 295 295 295 295 294 294 294 294 294 294 294 295 295 295 295 296 299 302 301 300 300 301 303 304 304 304 304 305 306 306 307 308 309 309 312 316 317 317 319 321
300 299 298 297 296 296 295 295 295 295 295 295 295 295 295 295 295 295 295 295 295 295 295 295 295 294 294 294 294 294 294 294 294 294 294 294 295 296 296 298 299 299 299 299 300 301 302 302 302 302 303 304 304 305 305 306 307 308 311 315 316 318 319
297 296 296 296 295 295 295 295 295 295 295 295 295 295 295 295 295 295 295 295 295 295 294 294 294 294 294 294 294 294 294 294 294 294 294 295 296 297 298 299 299 299 299 299 299 300 300 300 300 301 301 302 302 303 303 304 305 305 307 310 312 314 316
296 295 295 295 295 295 295 295 295 295 295 295 295 295 295 294 295 295 295 295 295 294 294 294 294 294 294 294 294 294 294 294 294 295 295 296 297 298 299 300 300 299 299 299 299 299 299 299 299 300 300 301 301 301 302 302 303 304 305 306 308 310 312
295 295 295 295 295 295 295 295 295 294 295 295 294 294 294 294 294 294 294 295 295 294 294 294 294 294 294 294 294 294 294 294 295 296 297 297 297 298 299 300 300 299 299 299 298 298 298 298 299 299 299 300 300 300 301 301 302 303 304 305 306 308 309
295 295 295 295 294 294 294 294 294 294 294 294 294 294 294 294 294 294 294 294 294 294 294 294 294 294 294 294 294 294 294 294 295 296 297 297 298 298 299 299 299 299 299 298 298 297 297 298 298 298 298 298 299 299 300 301 301 301 303 304 305 306 308
295 294 294 294 294 294 294 294 294 294 294 294 294 294 294 294 294 294 294 294 294 294 294 294 294 294 294 294 294 294 294 295 296 297 298 298 298 298 298 299 299 298 298 298 297 297 297 297 297 297 297 297 297 298 299 300 301 301 302 303 304 305 307
294 294 294 294 294 294 294 294 294 294 294 294 294 294 294 294 294 294 294 294 294 294 294 294 294 294 294 294 294 295 295 296 297 297 298 298 298 298 298 298 298 298 297 297 297 297 297 296 296 296 297 297 297 297 298 299 300 301 301 302 303 304 305
294 294 294 294 294 294 294 294 294 294 294 294 294 294 294 294 294 294 294 294 295 295 293 293 294 293 294 294 294 295 296 296 297 297 298 298 298 298 298 298 297 297 297 296 296 296 296 296 296 296 297 297 297 297 297 298 299 300 300 301 302 303 304
294 294 294 294 294 294 294 294 294 294 294 294 294 294 294 294 294 294 294 295 296 295 294 293 294 293 294 294 294 295 296 296 297 297 298 298 298 298 297 297 297 296 296 296 295 295 296 296 297 297 297 297 297 297 297 297 298 299 299 300 301 302 303
294 293 294 293 293 293 293 294 294 294 294 293 293 293 293 293 293 293 293 294 295 295 293 293 293 293 294 294 294 295 296 296 297 298 298 298 297 297 297 296 296 296 296 296 296 295 295 296 297 297 297 298 298 298 297 297 298 298 299 299 300 301 302
293 293 293 293 293 293 293 293 293 293 293 293 293 293 293 293 293 293 293 294 294 294 293 293 293 293 294 294 294 295 296 297 297 297 297 297 297 296 296 296 296 296 295 295 295 295 295 296 296 297 297 298 298 298 298 297 298 298 298 299 299 300 301
293 293 293 293 293 293 293 293 293 293 293 293 293 293 293 293 293 292 293 294 294 293 293 293 293 293 294 294 294 295 296 297 297 297 297 297 296 296 296 296 296 296 295 295 295 295 294 295 296 297 297 298 298 298 298 298 298 298 298 299 299 299 300
293 293 293 293 293 293 293 293 293 293 293 293 293 293 292 292 293 292 293 294 294 293 293 293 293 293 294 294 294 295 296 297 297 297 296 296 296 296 296 295 295 295 295 295 295 294 294 295 296 296 297 297 297 298 298 298 298 297 298 299 299 299 300
293 293 293 293 293 293 293 293 293 293 293 292 292 292 292 292 292 292 292 293 294 293 293 293 293 293 293 294 295 296 296 297 296 296 296 296 296 296 295 295 295 295 295 295 294 294 295 295 296 295 295 296 296 297 297 297 297 297 298 299 300 300 301
293 293 293 293 293 293 293 293 293 293 292 292 292 292 292 292 292 292 292 292 293 293 293 293 293 293 293 293 295 296 296 296 296 296 296 296 296 296 295 295 294 294 294 294 294 294 295 295 295 295 295 295 296 297 297 297 297 298 298 300 301 301 301
293 293 293 293 293 293 293 293 293 293 292 292 292 292 292 292 291 292 292 292 293 293 293 293 293 293 293 293 294 296 295 296 296 296 296 296 295 295 295 295 294 293 293 294 294 294 295 295 295 295 295 295 296 296 297 297 298 298 298 299 301 301 301
294 293 293 293 293 293 293 293 293 293 292 292 292 292 292 292 291 291 292 292 292 293 293 293 292 293 293 292 294 295 295 295 296 296 296 295 295 295 295 294 293 293 293 293 294 294 294 295 295 295 294 294 295 296 297 298 298 298 298 299 300 301 301
294 293 293 293 293 293 293 293 293 293 293 293 292 292 292 292 291 291 291 292 292 292 292 292 292 293 293 292 293 294 295 294 295 296 295 295 295 295 294 295 294 292 293 293 293 294 294 294 295 294 294 294 294 295 296 297 297 297 297 298 299 300 300
294 293 293 293 293 293 293 293 292 292 293 293 293 292 292 292 292 291 291 291 292 292 292 292 292 292 292 292 292 293 294 294 294 296 295 295 295 295 294 294 294 292 292 293 293 293 293 294 295 294 294 295 294 294 296 296 296 297 297 297 298 299 299
293 293 293 293 293 293 293 293 293 293 293 293 292 292 292 293 293 292 292 291 291 291 291 292 292 292 292 292 292 292 293 292 293 295 295 295 295 295 294 294 293 292 292 292 292 292 292 293 294 295 295 295 295 294 295 296 296 297 297 297 298 298 298
293 293 293 293 293 293 293 293 293 293 293 293 292 292 293 294 295 295 294 293 292 292 292 291 291 291 292 292 292 292 292 292 292 294 295 295 294 294 294 293 293 292 292 292 293 293 292 292 294 295 295 295 296 296 296 296 297 297 298 297 297 297 297
293 293 293 293 293 293 293 293 293 293 294 295 295 295 295 295 296 296 296 295 294 293 293 293 291 290 291 292 292 292 292 292 292 293 295 295 294 294 294 293 293 292 292 292 293 293 293 292 293 294 295 295 296 296 296 297 297 297 297 298 297 296 297
293 293 293 293 294 293 293 294 295 294 296 297 297 297 296 296 297 296 296 296 296 295 295 294 292 291 291 291 292 292 292 292 292 292 294 294 294 294 294 293 293 293 293 293 293 293 293 293 293 293 295 295 295 295 295 296 297 297 297 298 297 297 296
Wind_Speed
4 6 8 8 7 7 6 6 7 10 11 12 13 12 12 11 11 10 10 10 10 11 11 11 11 12 12 13 13 13 13 12 10 10 12 13 13 13 13 13 15 16 17 18 18 19 21 23 23 21 19 18 19 21 21 20 19 19 19 22 23 24 25
3 6 9 9 8 7 6 6 6 10 12 11 10 9 8 8 8 8 9 9 9 10 11 10 11 12 11 10 9 8 8 8 8 8 10 12 12 13 14 14 14 15 16 16 16 17 19 21 22 22 21 20 20 21 22 22 21 20 20 21 22 22 24
2 6 8 8 8 7 6 6 8 11 9 6 5 4 5 5 6 8 9 10 11 12 13 12 12 12 12 12 10 9 8 8 8 7 9 11 12 12 13 13 14 15 16 16 16 17 19 20 22 24 24 23 22 21 21 21 22 23 22 22 22 23 23
3 5 6 7 6 5 4 4 6 6 3 4 5 5 6 7 9 11 12 12 13 13 13 13 13 13 14 14 13 12 11 10 10 10 10 9 10 11 11 11 12 13 15 16 17 18 19 21 23 24 25 24 25 24 22 21 22 24 25 24 24 24 23
2 2 3 3 2 1 1 1 1 1 4 7 8 8 9 10 11 12 13 13 14 14 15 15 15 15 16 15 14 14 14 13 13 12 12 12 12 12 12 11 11 11 12 14 16 18 19 21 23 25 26 25 26 26 25 24 23 23 23 24 23 23 22
2 3 3 3 3 4 4 3 4 4 7 9 10 11 12 13 13 14 14 15 16 16 17 17 16 16 16 16 15 15 14 14 14 13 13 13 13 14 14 13 12 12 12 13 15 16 18 19 21 24 26 26 26 29 29 26 25 23 22 21 21 21 21
4 5 6 6 6 5 5 6 6 7 8 10 11 12 13 14 15 16 16 17 17 17 17 17 16 16 16 16 15 15 15 14 14 14 13 13 13 13 13 14 14 14 13 13 14 15 16 17 19 21 25 27 27 28 29 27 25 24 23 20 18 19 20
5 7 8 9 8 7 7 8 8 9 9 10 11 13 14 15 16 16 17 17 17 17 17 17 17 17 17 17 17 17 16 16 15 15 14 14 14 14 13 14 15 15 14 14 14 14 15 16 17 19 21 25 28 28 27 27 26 25 24 22 20 19 19
8 9 10 11 11 10 10 9 10 10 10 11 13 14 15 15 16 16 17 17 17 18 18 18 19 19 19 19 20 20 20 19 18 17 16 16 15 16 16 16 16 15 14 15 15 15 15 15 17 18 19 22 26 27 26 26 27 26 25 23 22 20 18
10 11 11 11 11 10 10 10 10 11 12 13 14 15 16 16 16 17 17 17 18 19 19 20 20 20 20 21 21 22 22 22 21 19 19 17 15 15 16 16 16 15 15 17 18 17 16 17 18 19 21 22 22 24 25 25 28 29 27 25 24 22 21
10 10 11 11 10 10 11 11 11 13 15 15 16 16 17 17 17 18 18 19 19 20 20 21 21 21 22 22 22 23 22 22 23 23 23 21 18 17 16 16 15 15 17 20 20 17 16 18 19 20 21 22 21 22 23 26 30 33 31 29 30 27 25
9 10 11 12 12 13 14 14 15 16 16 16 17 17 18 18 19 19 19 20 20 21 21 21 22 23 23 23 24 24 24 24 24 25 25 25 24 23 21 19 17 17 18 22 22 18 16 17 19 20 20 22 23 23 24 25 30 36 34 32 35 33 28
12 12 13 14 15 17 17 17 17 17 17 18 18 18 18 19 19 20 20 21 21 22 23 23 23 24 24 25 25 25 26 27 26 25 25 26 26 25 24 21 19 19 19 22 22 20 18 18 19 19 18 20 22 25 27 27 31 37 36 33 36 36 32
15 15 16 16 17 18 18 18 18 18 18 18 19 18 18 19 20 20 21 22 22 23 24 24 25 26 26 27 27 28 28 28 27 27 27 26 26 25 24 21 20 20 20 22 23 21 18 19 20 19 18 18 20 22 25 28 33 37 37 35 34 35 34
16 16 17 17 18 18 18 18 18 18 18 18 18 18 18 19 20 20 21 22 22 23 24 25 26 27 28 28 29 29 29 29 29 28 28 27 26 25 25 22 21 21 20 22 23 22 20 21 22 22 20 19 20 21 21 24 29 33 38 39 37 35 34
16 17 17 18 18 18 18 18 18 18 18 18 18 18 18 19 19 20 21 21 22 23 24 25 26 27 28 29 29 30 30 30 30 29 27 26 25 24 23 22 22 22 20 22 24 23 23 25 27 28 25 22 22 23 23 24 25 28 34 39 39 37 35
17 18 18 18 18 18 18 17 17 17 18 18 18 18 18 18 19 19 20 21 22 23 24 25 26 27 28 29 30 31 31 31 31 29 27 25 24 22 21 21 22 21 20 22 25 25 26 29 30 30 28 26 25 27 28 26 25 25 26 32 37 37 35
18 18 18 18 17 17 17 17 17 17 17 17 18 18 18 18 19 20 21 21 22 23 24 25 26 27 28 30 31 31 31 31 30 27 25 24 23 21 20 20 21 21 20 20 23 26 28 30 30 29 29 28 27 27 28 29 28 26 24 27 33 35 35
18 18 18 17 17 16 16 16 16 17 17 17 18 18 18 19 20 20 20 21 22 23 24 25 26 27 29 29 30 30 30 29 27 25 23 21 21 20 20 20 20 20 19 20 25 28 28 29 29 28 28 29 28 27 27 29 28 27 27 27 28 31 34
18 17 17 17 16 16 16 16 16 16 17 17 17 18 18 19 19 19 20 20 21 22 24 25 26 27 28 28 28 27 27 26 24 22 21 19 19 19 19 19 19 19 19 22 26 28 28 28 27 28 28 27 28 27 27 28 28 27 28 28 28 29 32
18 17 17 17 17 17 17 17 17 17 17 17 17 18 18 18 18 18 19 19 19 21 24 25 26 27 27 27 26 24 23 24 23 21 19 18 17 18 19 18 17 17 18 21 26 27 29 30 31 32 32 28 27 27 27 29 30 28 27 28 29 29 29
18 17 17 17 17 17 17 17 18 17 17 17 18 18 17 17 18 18 18 18 17 20 24 25 26 27 27 26 25 22 21 22 21 20 19 19 17 18 19 18 17 18 20 22 26 29 32 35 36 36 36 34 31 29 29 29 28 28 27 27 29 29 28
18 18 18 18 18 18 18 19 18 18 18 18 18 18 17 17 18 18 18 17 16 18 23 25 25 25 25 25 24 23 21 20 20 19 20 20 18 18 19 17 18 20 21 23 26 29 35 39 38 37 37 36 33 31 30 29 27 27 28 28 28 28 28
19 19 19 19 19 19 19 20 19 19 19 19 19 18 18 18 19 19 19 18 17 18 23 26 25 25 25 24 24 23 21 20 20 19 20 19 18 19 18 18 19 19 20 24 24 27 36 42 40 38 37 35 32 31 29 29 29 29 29 29 29 29 29
19 20 20 20 20 20 20 20 20 20 20 20 19 19 19 20 21 21 20 19 20 22 24 26 25 25 26 24 23 22 20 19 19 19 19 19 18 19 18 19 19 18 21 24 23 28 39 44 42 40 39 36 33 30 28 29 30 29 29 29 30 30 31
20 20 20 21 21 21 20 21 21 20 21 21 20 20 21 21 22 23 21 20 22 25 26 26 26 27 26 24 22 22 19 18 19 18 19 19 18 19 19 20 20 20 22 23 24 32 41 43 43 42 39 37 35 32 32 32 29 27 28 28 29 30 32
20 20 21 21 21 21 21 21 21 21 21 21 21 22 22 22 23 24 22 20 22 26 27 27 27 28 27 24 23 22 20 19 19 19 19 20 19 19 19 21 22 23 24 23 27 35 41 42 41 39 37 36 35 35 35 33 28 27 28 30 31 32 33
20 20 21 21 21 21 21 21 21 21 21 22 22 22 23 23 23 24 24 22 22 25 27 27 28 29 29 26 23 21 19 18 19 19 19 20 20 20 20 21 23 26 25 24 29 35 38 40 39 34 32 34 34 34 32 29 29 31 31 31 32 33 33
20 20 20 20 20 20 20 21 21 22 22 22 22 23 23 23 23 24 25 24 23 24 26 28 29 30 31 28 23 20 19 18 19 19 20 20 20 20 20 21 25 27 25 26 31 35 37 39 37 32 33 35 35 35 33 31 33 34 31 30 30 30 29
20 19 19 19 20 20 20 20 21 21 21 22 22 23 23 23 23 24 24 24 23 22 25 28 29 30 32 30 24 20 20 19 18 20 20 20 20 20 21 22 26 29 28 28 32 34 36 39 37 33 35 37 36 37 36 36 37 35 31 28 28 26 24
18 18 18 18 19 19 19 19 20 20 21 21 22 22 22 22 23 23 23 24 23 22 23 26 28 29 31 30 25 20 20 20 18 19 20 20 20 21 22 23 27 30 29 30 32 34 36 39 38 34 34 38 38 37 37 37 38 38 35 30 26 23 19
17 17 18 18 18 18 18 18 19 19 20 20 20 21 21 21 22 23 23 23 24 23 23 25 27 28 29 30 27 20 19 20 19 18 20 20 20 21 21 22 26 29 29 29 32 34 36 39 38 33 34 38 38 36 36 36 36 38 37 32 27 23 18
17 17 17 17 17 17 17 16 17 18 18 18 18 19 19 20 21 22 22 23 23 24 24 24 25 26 26 27 27 23 20 21 19 17 19 21 20 21 21 22 24 28 28 29 33 35 37 39 37 34 34 38 38 36 35 34 33 34 35 33 28 24 20
17 16 16 16 16 16 15 15 16 17 16 16 17 18 18 18 19 20 21 22 23 23 24 24 24 25 24 24 25 24 21 21 19 17 18 20 20 20 21 22 24 27 28 29 33 38 40 39 37 36 36 37 36 35 35 34 33 33 34 34 30 26 24
16 15 15 15 14 14 14 14 15 15 14 15 16 17 17 16 15 16 17 19 21 22 23 24 24 24 22 21 22 22 21 21 20 16 16 20 20 20 21 22 23 27 30 30 32 36 40 40 38 38 38 37 35 36 36 36 35 35 35 35 34 31 28
15 14 14 14 13 13 13 13 13 13 13 12 12 13 13 13 12 12 13 14 16 19 20 21 24 24 22 20 20 20 19 19 19 16 15 18 20 19 20 21 23 27 32 32 31 32 35 38 40 39 39 38 38 38 38 38 38 38 37 37 37 37 34
13 12 12 12 12 12 12 11 11 11 11 9 8 9 10 10 10 11 11 11 13 16 16 18 21 24 24 23 22 22 21 20 20 18 15 16 18 18 20 23 25 28 31 31 29 28 31 36 39 40 41 41 41 42 42 41 40 40 39 39 40 41 39
Wind_Direction
217 230 233 235 235 233 245 261 276 287 287 287 291 291 291 290 289 290 291 291 292 297 301 300 300 301 301 301 298 296 295 296 295 290 294 298 296 295 291 289 289 289 291 293 294 296 298 300 301 301 299 296 296 295 295 293 284 277 275 275 274 272 270
217 232 231 231 233 240 256 269 282 288 290 294 294 293 297 298 302 306 311 320 328 338 345 346 347 346 343 339 331 322 317 315 310 297 286 280 282 291 294 294 295 295 297 297 296 296 297 299 301 302 301 299 297 295 296 295 288 282 278 276 273 269 268
226 230 233 236 241 251 267 272 268 270 284 313 323 329 341 343 349 355 359 4 7 9 10 11 11 11 9 8 6 358 345 333 328 314 289 275 278 292 296 296 297 299 299 299 299 299 299 298 298 300 301 301 301 299 296 292 289 287 285 282 276 270 268
247 235 244 250 252 256 260 260 263 268 306 29 34 27 23 26 26 25 26 24 23 24 24 24 24 21 18 17 16 13 6 356 346 336 324 312 305 307 308 300 296 297 298 298 298 298 301 301 300 301 301 303 303 301 297 294 291 290 289 288 280 271 268
267 230 237 242 237 166 135 144 131 68 58 53 49 43 41 42 39 35 35 34 32 31 29 28 27 22 18 18 18 15 12 8 360 351 342 336 328 323 320 310 300 299 297 297 298 297 298 299 302 302 301 304 305 301 299 299 297 293 289 287 283 274 268
76 93 105 114 99 98 108 108 104 88 64 56 53 51 48 45 41 38 37 36 34 33 30 28 26 23 20 18 17 14 13 11 6 1 353 342 334 327 322 318 315 315 311 307 308 306 303 303 305 304 303 304 305 302 301 301 299 296 290 285 282 278 271
99 98 98 99 95 98 106 104 98 84 67 59 55 51 49 46 43 41 39 37 35 33 31 27 24 24 22 18 15 14 14 13 11 8 1 352 343 332 324 318 315 316 317 315 317 316 313 311 309 308 307 306 305 304 303 301 299 296 294 290 285 281 275
112 110 106 104 103 100 100 97 92 84 73 64 57 53 51 49 47 45 41 37 34 31 28 25 24 23 22 20 17 15 12 10 11 11 7 2 355 349 342 332 324 322 322 321 322 319 316 314 311 310 311 310 312 312 308 305 303 297 294 294 292 287 280
110 107 104 103 103 104 104 98 90 83 76 68 63 60 57 53 50 47 43 38 35 32 29 27 26 25 25 25 23 20 17 13 11 8 6 3 360 358 356 349 342 336 332 326 319 315 314 311 308 308 311 314 319 321 314 310 309 303 299 300 298 291 284
102 100 100 100 99 101 100 93 87 82 77 72 67 63 59 54 51 49 46 42 38 35 33 30 30 30 30 30 29 26 23 21 18 12 9 5 360 359 356 353 351 345 340 336 328 320 315 312 308 306 308 312 319 321 317 312 308 303 303 306 302 295 289
94 94 97 97 95 97 95 90 86 82 78 72 67 62 58 55 52 50 46 43 40 37 34 33 33 33 32 31 31 28 24 24 23 18 15 12 6 2 357 354 352 345 342 346 344 334 324 319 315 310 309 310 314 318 317 314 306 297 298 303 298 296 299
90 93 96 95 95 95 93 88 84 81 78 72 67 63 60 56 52 49 46 43 40 38 36 35 34 33 32 31 30 28 25 24 24 20 17 16 12 9 4 359 355 348 344 348 350 344 336 332 328 323 317 313 312 314 315 316 307 295 294 302 296 291 299
93 95 96 95 94 93 91 88 84 81 78 74 69 65 61 57 53 50 47 43 41 39 37 35 34 33 31 30 29 27 25 24 23 20 17 15 13 11 9 4 356 349 347 349 350 347 339 335 334 334 329 321 317 315 312 313 310 298 293 300 301 294 293
98 100 101 97 94 92 90 88 85 82 78 75 71 67 63 59 55 50 47 45 42 39 36 33 33 31 30 28 27 25 24 23 21 19 17 14 11 9 9 7 358 351 350 351 351 348 341 336 336 335 333 329 325 323 318 313 313 306 295 295 300 299 295
103 103 101 98 95 93 90 87 85 82 78 75 72 68 64 60 56 51 47 44 41 38 35 32 31 29 27 26 25 23 21 20 18 17 16 13 10 9 8 6 359 354 354 353 351 348 343 339 338 335 332 329 325 325 325 319 315 312 303 299 298 298 298
105 103 100 98 96 93 90 87 84 81 78 75 71 67 63 59 55 50 46 43 40 37 33 31 29 27 25 24 22 21 19 17 16 16 14 12 9 7 5 2 358 355 354 353 351 348 344 341 340 338 334 331 327 322 322 322 317 313 308 305 303 301 301
105 103 100 98 95 93 90 87 84 80 77 74 70 65 61 57 53 49 45 42 39 35 32 30 28 25 24 22 20 18 16 15 14 13 12 11 9 5 3 360 357 354 352 351 350 348 344 342 341 339 335 332 329 324 321 321 318 314 309 307 308 308 305
105 102 99 96 93 91 89 86 83 80 76 72 68 64 58 54 51 46 42 39 36 34 31 29 27 24 23 21 19 16 14 14 13 11 10 9 6 5 3 360 356 354 352 350 349 346 343 343 341 339 336 333 330 325 322 320 317 314 308 305 308 311 309
105 102 100 96 93 91 88 86 83 79 75 70 66 62 56 52 48 44 40 37 35 32 29 26 24 23 21 20 18 15 14 14 12 11 10 6 5 5 3 359 355 355 354 351 350 349 346 344 342 339 336 333 332 327 322 321 318 313 308 306 306 309 311
105 102 99 96 93 91 88 86 83 78 74 69 65 61 56 51 46 43 40 37 35 31 27 24 22 21 20 18 17 15 14 13 12 11 9 7 6 4 1 358 355 354 354 352 352 352 349 345 342 340 336 332 330 328 323 322 320 315 309 308 306 305 308
104 101 97 94 92 90 88 85 82 78 74 70 66 60 55 50 46 43 40 37 35 31 27 22 19 18 17 16 15 14 13 13 12 11 9 8 6 2 359 357 355 353 352 351 351 352 351 348 344 341 339 335 329 325 323 324 323 318 312 308 307 306 306
103 99 96 94 91 89 87 84 81 79 74 70 66 61 56 51 46 43 40 37 35 32 27 23 18 15 14 14 13 14 14 13 11 9 9 8 5 2 360 357 355 354 351 349 349 349 351 350 346 343 342 339 334 328 325 325 323 318 313 309 307 307 306
100 98 95 93 91 88 87 84 81 78 74 70 66 61 57 52 48 46 42 38 37 33 26 22 18 15 14 12 12 15 16 11 10 10 8 6 3 360 359 357 354 353 351 349 347 345 347 349 347 345 343 341 338 334 328 324 320 315 311 308 307 307 305
101 98 96 94 91 88 85 82 79 76 72 69 65 61 58 53 49 47 45 40 37 32 25 22 19 16 16 13 12 17 18 11 12 12 7 5 2 358 358 357 354 353 350 349 346 343 343 345 345 344 342 341 340 337 329 321 316 312 307 303 303 303 302
103 100 97 94 91 87 84 81 78 74 71 68 64 62 58 54 51 49 46 42 37 31 26 24 20 17 17 15 14 21 20 13 14 12 6 4 1 358 358 356 354 353 349 348 346 342 342 342 343 342 341 341 341 337 328 321 318 315 309 302 299 300 300
105 102 98 94 90 87 83 80 77 73 71 68 65 62 58 54 51 49 47 44 37 31 28 25 22 20 18 15 18 25 22 15 16 12 6 5 1 357 357 355 354 352 349 348 346 342 342 341 341 342 342 341 340 336 331 329 327 321 313 304 295 293 296
107 102 98 94 90 87 83 80 77 73 71 68 64 61 57 54 51 48 47 45 37 31 29 26 23 22 20 18 23 27 20 14 16 11 6 4 1 357 357 356 354 351 348 349 346 342 343 343 343 343 341 340 338 336 334 333 329 322 316 309 299 293 295
107 101 97 94 90 87 83 80 77 73 70 67 63 60 56 53 50 47 46 47 40 32 29 27 25 25 24 23 28 27 17 12 14 9 5 5 2 359 357 357 356 352 350 349 347 345 345 346 347 344 341 339 338 337 334 331 328 325 321 314 306 299 298
106 100 97 93 89 85 81 78 76 72 68 65 61 58 55 52 50 47 44 46 43 34 30 28 28 28 26 26 30 26 15 11 12 8 5 4 2 360 358 358 358 354 353 352 350 350 351 351 351 348 345 343 341 339 337 335 333 330 324 316 311 303 298
106 101 97 93 89 85 80 77 75 71 67 64 59 57 54 50 49 47 43 43 42 37 31 29 29 29 27 28 32 27 15 13 12 8 6 5 3 1 359 357 357 358 358 357 356 358 358 358 357 354 350 348 344 342 341 338 338 337 330 322 316 307 300
107 103 99 94 89 85 81 77 74 71 67 63 59 56 54 50 47 46 42 41 41 38 33 28 28 29 28 29 33 28 15 13 13 8 7 6 3 2 0 355 355 360 3 2 2 5 4 3 2 359 353 351 350 347 343 341 341 342 339 331 322 312 305
109 105 100 95 90 86 82 77 74 71 67 63 59 57 54 51 48 45 42 39 38 37 33 28 26 27 27 28 32 30 16 12 13 9 6 6 3 2 3 357 355 0 5 5 7 9 8 6 6 1 356 356 356 352 348 347 346 346 345 341 334 326 321
110 105 100 96 91 86 82 78 74 71 68 65 61 57 55 52 48 46 43 39 37 34 32 29 25 24 25 25 29 32 23 14 14 11 6 4 3 1 2 360 357 0 7 11 14 15 12 10 8 5 1 1 2 359 357 356 353 352 352 350 344 339 340
111 106 101 96 92 87 83 78 75 72 69 65 61 57 55 52 47 44 42 39 36 34 31 29 24 21 21 21 24 29 26 17 18 19 8 3 2 1 359 358 358 1 7 13 17 18 15 12 11 9 7 6 7 7 8 6 1 360 0 358 354 351 351
111 107 102 97 92 88 84 79 75 74 70 63 60 56 54 53 47 41 38 35 32 31 29 27 24 20 18 18 20 24 23 18 18 19 9 1 1 360 356 354 357 4 9 12 13 13 11 11 13 13 11 11 12 14 15 13 10 9 8 5 4 3 359
112 107 103 100 95 89 85 80 74 74 70 61 56 53 50 50 46 40 37 32 28 27 24 20 20 20 19 20 21 21 19 14 12 16 11 1 358 357 355 352 354 3 9 11 11 8 4 7 13 15 14 14 14 16 17 15 14 14 12 9 9 10 8
114 110 106 101 95 88 85 81 73 69 70 63 56 53 48 45 43 38 35 30 24 24 22 16 14 16 18 21 21 19 17 11 8 12 11 358 352 352 349 348 353 360 3 7 9 6 359 2 9 14 17 17 17 17 17 16 16 16 14 12 12 12 12